WXM80 ListenWXM80 Stop

You find our weather info also at:

UK Metoffice

WeatherCloud

Weather Underground

Northeastern Weather Network

AWEKAS

Citizen Weather Observer Program (CWOP)

HAMweather, WeatherForYou, PWS Weather


Weather Underground History page Text

Daily Summary for July 29, 2017 Units:  Metric    English   Both
« Previous Day
Next Day »
Daily Weekly Monthly Yearly Custom
  High: Low: Average:
Temperature: 23.1 °C 19.6 °C 21.2 °C
Dew Point: 21.4 °C 14.5 °C 16.1 °C
Humidity: 91 % 67 % 73 %
Wind Speed: 15.8 km/h 1 km/h 7.9 km/h
Wind Gust: 27.8 km/h - -
Wind:- - ENE
Pressure: 1010.4 hPa 1006.3 hPa -
Precipitation: 0 mm    
Historical Graphs
 
 
Tabular Data for July 29, 2017
Time Temperature Dew Point Pressure Wind Wind Speed Wind Gust Humidity Rainfall Rate (Hourly)
00:04 23 °C 21.3 °C 1007 hPa West 1.6 km/h 4.8 km/h 90 % 0 mm
00:09 23 °C 21.4 °C 1007 hPa North 1 km/h 5.6 km/h 91 % 0 mm
00:14 22.9 °C 21.4 °C 1007 hPa North 6.9 km/h 11.1 km/h 91 % 0 mm
00:15 22.9 °C 21.2 °C 1007 hPa NE 4.7 km/h 9.3 km/h 90 % 0 mm
00:20 22.8 °C 20.9 °C 1007 hPa NE 6.1 km/h 13 km/h 89 % 0 mm
00:25 22.7 °C 20.4 °C 1007 hPa NNE 7.4 km/h 11.1 km/h 87 % 0 mm
00:30 22.7 °C 20.3 °C 1007 hPa NE 4 km/h 7.4 km/h 86 % 0 mm
00:35 22.7 °C 20 °C 1007 hPa East 4.8 km/h 11.1 km/h 85 % 0 mm
00:43 22.7 °C 19.7 °C 1007 hPa NE 6.6 km/h 11.3 km/h 83 % 0 mm
00:48 22.7 °C 19.4 °C 1007 hPa NE 4.5 km/h 13 km/h 82 % 0 mm
00:53 22.7 °C 19.1 °C 1007 hPa ENE 5.3 km/h 5.6 km/h 80 % 0 mm
00:58 22.7 °C 19.1 °C 1007 hPa ENE 8 km/h 14.5 km/h 80 % 0 mm
01:04 22.7 °C 18.9 °C 1006.7 hPa NE 6.3 km/h 8 km/h 79 % 0 mm
01:09 22.7 °C 18.9 °C 1007 hPa NE 9.7 km/h 16.7 km/h 79 % 0 mm
01:14 22.7 °C 18.7 °C 1007 hPa NE 5.5 km/h 12.9 km/h 78 % 0 mm
01:19 22.7 °C 18.7 °C 1007 hPa ENE 6.6 km/h 9.7 km/h 78 % 0 mm
01:24 22.7 °C 18.2 °C 1007 hPa ENE 7.7 km/h 13 km/h 76 % 0 mm
01:25 22.7 °C 18.2 °C 1006.7 hPa NE 6.1 km/h 13 km/h 76 % 0 mm
01:35 22.7 °C 18.2 °C 1007 hPa NE 4 km/h 11.1 km/h 76 % 0 mm
01:40 22.7 °C 18 °C 1007 hPa ENE 8 km/h 13 km/h 75 % 0 mm
01:45 22.6 °C 18.2 °C 1007 hPa East 5.8 km/h 12.9 km/h 76 % 0 mm
01:50 22.6 °C 17.4 °C 1007 hPa ENE 8.5 km/h 13 km/h 73 % 0 mm
01:55 22.6 °C 17.3 °C 1007 hPa NE 7.7 km/h 14.8 km/h 72 % 0 mm
02:00 22.6 °C 17.4 °C 1007 hPa NE 4.8 km/h 7.4 km/h 73 % 0 mm
02:05 22.6 °C 17.7 °C 1006.7 hPa NE 5 km/h 13 km/h 74 % 0 mm
02:10 22.5 °C 17.4 °C 1006.7 hPa NE 6.6 km/h 13 km/h 73 % 0 mm
02:15 22.5 °C 17.8 °C 1006.7 hPa NE 7.9 km/h 11.3 km/h 75 % 0 mm
02:20 22.4 °C 17.6 °C 1006.7 hPa ENE 4.8 km/h 11.1 km/h 74 % 0 mm
02:30 22.4 °C 17.3 °C 1007 hPa ENE 5.1 km/h 13 km/h 73 % 0 mm
02:35 22.4 °C 17.5 °C 1006.7 hPa NE 7.4 km/h 14.8 km/h 74 % 0 mm
02:40 22.3 °C 17.3 °C 1006.7 hPa ENE 7.1 km/h 16.1 km/h 73 % 0 mm
02:41 22.3 °C 17.3 °C 1006.7 hPa NE 8 km/h 19.3 km/h 73 % 0 mm
02:46 22.3 °C 17.2 °C 1006.7 hPa ENE 9.7 km/h 20.9 km/h 73 % 0 mm
02:51 22.2 °C 17.4 °C 1006.7 hPa ENE 8 km/h 20.9 km/h 74 % 0 mm
02:56 22.2 °C 17.3 °C 1006.7 hPa ENE 8 km/h 12.9 km/h 74 % 0 mm
03:01 22.2 °C 17.3 °C 1006.3 hPa NE 7.1 km/h 11.1 km/h 74 % 0 mm
03:06 22.1 °C 17.3 °C 1006.3 hPa ENE 6.4 km/h 13 km/h 74 % 0 mm
03:11 22.1 °C 16.8 °C 1006.7 hPa ENE 10 km/h 18.5 km/h 72 % 0 mm
03:16 22.1 °C 17 °C 1006.7 hPa ENE 8.4 km/h 16.7 km/h 73 % 0 mm
03:21 22.1 °C 16.3 °C 1006.7 hPa ENE 11.7 km/h 22.2 km/h 70 % 0 mm
03:26 22 °C 16.3 °C 1006.7 hPa ENE 13.5 km/h 22.5 km/h 70 % 0 mm
03:31 21.9 °C 16 °C 1006.7 hPa ENE 12.9 km/h 18.5 km/h 69 % 0 mm
03:36 21.9 °C 16 °C 1006.7 hPa NE 12.7 km/h 16.7 km/h 69 % 0 mm
03:41 21.9 °C 15.9 °C 1006.7 hPa ENE 11.9 km/h 22.2 km/h 69 % 0 mm
03:46 21.8 °C 15.9 °C 1006.7 hPa ENE 10.6 km/h 24.1 km/h 69 % 0 mm
03:51 21.8 °C 15.7 °C 1006.7 hPa ENE 15.8 km/h 27.8 km/h 68 % 0 mm
03:56 21.8 °C 15.4 °C 1006.7 hPa NE 10.8 km/h 27.8 km/h 67 % 0 mm
04:01 21.7 °C 15.8 °C 1006.7 hPa East 11.7 km/h 22.2 km/h 69 % 0 mm
04:07 21.7 °C 15.8 °C 1006.7 hPa ENE 8.7 km/h 18.5 km/h 69 % 0 mm
04:12 21.7 °C 15.3 °C 1006.7 hPa East 13.4 km/h 18.5 km/h 67 % 0 mm
04:17 21.6 °C 15.4 °C 1006.7 hPa NE 10 km/h 16.7 km/h 68 % 0 mm
04:22 21.6 °C 15.7 °C 1006.7 hPa ENE 9.5 km/h 13 km/h 69 % 0 mm
04:27 21.6 °C 15.4 °C 1006.7 hPa NE 8.9 km/h 14.8 km/h 68 % 0 mm
04:32 21.6 °C 15.6 °C 1007 hPa ENE 9.5 km/h 18.5 km/h 69 % 0 mm
04:37 21.5 °C 15.3 °C 1007 hPa ENE 12.4 km/h 22.2 km/h 68 % 0 mm
04:42 21.4 °C 15.3 °C 1007 hPa ENE 10.5 km/h 18.5 km/h 68 % 0 mm
04:47 21.4 °C 15.7 °C 1007 hPa East 9.2 km/h 13 km/h 70 % 0 mm
04:48 21.4 °C 15.7 °C 1007 hPa NNE 7.4 km/h 13 km/h 70 % 0 mm
04:53 21.3 °C 15.2 °C 1007 hPa NE 8.4 km/h 14.8 km/h 68 % 0 mm
04:58 21.3 °C 15.1 °C 1007 hPa ENE 10 km/h 18.5 km/h 68 % 0 mm
05:03 21.2 °C 15.1 °C 1007 hPa NE 10.8 km/h 16.7 km/h 68 % 0 mm
05:08 21.2 °C 15.3 °C 1006.7 hPa ENE 7.7 km/h 13 km/h 69 % 0 mm
05:13 21.2 °C 15.3 °C 1007 hPa ENE 9.2 km/h 14.8 km/h 69 % 0 mm
05:18 21.2 °C 15.3 °C 1006.7 hPa NNE 7.7 km/h 11.1 km/h 69 % 0 mm
05:23 21.2 °C 14.8 °C 1006.7 hPa NE 10 km/h 20.4 km/h 67 % 0 mm
05:28 21.1 °C 15 °C 1007 hPa ENE 9.8 km/h 18.5 km/h 68 % 0 mm
05:33 21.1 °C 15 °C 1007 hPa NE 6.4 km/h 14.8 km/h 68 % 0 mm
05:38 21.1 °C 14.9 °C 1007 hPa East 9.8 km/h 16.7 km/h 68 % 0 mm
05:43 21 °C 15.1 °C 1007 hPa NE 10.9 km/h 25.9 km/h 69 % 0 mm
05:48 20.9 °C 14.6 °C 1007 hPa ENE 7.2 km/h 20.4 km/h 67 % 0 mm
05:53 20.9 °C 15.3 °C 1007 hPa ENE 10 km/h 18.5 km/h 70 % 0 mm
05:59 20.9 °C 14.8 °C 1007 hPa ENE 10.9 km/h 14.8 km/h 68 % 0 mm
06:04 20.8 °C 14.9 °C 1007 hPa ENE 8.5 km/h 24.1 km/h 69 % 0 mm
06:09 20.8 °C 14.7 °C 1007 hPa ENE 9.2 km/h 16.7 km/h 68 % 0 mm
06:14 20.8 °C 14.9 °C 1007 hPa ENE 10.1 km/h 14.8 km/h 69 % 0 mm
06:19 20.7 °C 14.8 °C 1007 hPa North 10.3 km/h 14.8 km/h 69 % 0 mm
06:21 20.7 °C 15.3 °C 1007 hPa ENE 6.4 km/h 11.1 km/h 71 % 0 mm
06:26 20.7 °C 15 °C 1007 hPa ENE 11.7 km/h 18.5 km/h 70 % 0 mm
06:31 20.6 °C 15.4 °C 1007 hPa ENE 7.6 km/h 13 km/h 72 % 0 mm
06:36 20.6 °C 15.4 °C 1007 hPa ENE 10.5 km/h 18.5 km/h 72 % 0 mm
06:41 20.6 °C 15.1 °C 1007.3 hPa ENE 9.3 km/h 22.2 km/h 71 % 0 mm
06:47 20.5 °C 15.3 °C 1007 hPa NE 10.6 km/h 19.3 km/h 72 % 0 mm
06:52 20.4 °C 15 °C 1007 hPa ENE 13.7 km/h 19.3 km/h 71 % 0 mm
06:57 20.4 °C 15.4 °C 1007 hPa East 12.4 km/h 24.1 km/h 73 % 0 mm
07:02 20.4 °C 15.2 °C 1007 hPa East 11.4 km/h 16.7 km/h 72 % 0 mm
07:07 20.3 °C 15.1 °C 1007 hPa ENE 13.2 km/h 20.4 km/h 72 % 0 mm
07:12 20.3 °C 15.3 °C 1007 hPa NE 9.3 km/h 14.8 km/h 73 % 0 mm
07:17 20.3 °C 15.5 °C 1007 hPa ENE 9 km/h 14.8 km/h 74 % 0 mm
07:22 20.2 °C 15.2 °C 1007.3 hPa East 14.6 km/h 27.4 km/h 73 % 0 mm
07:27 20.2 °C 14.9 °C 1007.3 hPa ENE 13.5 km/h 22.5 km/h 72 % 0 mm
07:32 20.2 °C 15.4 °C 1007.7 hPa ENE 13.2 km/h 22.5 km/h 74 % 0 mm
07:37 20.1 °C 15.6 °C 1007.7 hPa East 10 km/h 16.7 km/h 75 % 0 mm
07:42 20.1 °C 15.3 °C 1007.7 hPa ENE 9.7 km/h 20.4 km/h 74 % 0 mm
07:47 20.1 °C 15.1 °C 1007.7 hPa ENE 12.7 km/h 24.1 km/h 73 % 0 mm
07:52 20 °C 15.2 °C 1007.7 hPa ENE 10.6 km/h 22.2 km/h 74 % 0 mm
07:57 20 °C 15.2 °C 1007.7 hPa NE 11.7 km/h 14.8 km/h 74 % 0 mm
08:02 19.9 °C 14.9 °C 1007.7 hPa ENE 15.6 km/h 18.5 km/h 73 % 0 mm
08:07 19.9 °C 14.9 °C 1007.7 hPa ENE 15.8 km/h 25.7 km/h 73 % 0 mm
08:12 19.9 °C 14.9 °C 1007.7 hPa NE 12.4 km/h 24.1 km/h 73 % 0 mm
08:15 19.8 °C 14.8 °C 1007.7 hPa ENE 11.7 km/h 24.1 km/h 73 % 0 mm
08:20 19.8 °C 14.8 °C 1007.7 hPa ENE 10 km/h 20.4 km/h 73 % 0 mm
08:25 19.8 °C 14.8 °C 1007.7 hPa East 13.5 km/h 24.1 km/h 73 % 0 mm
08:30 19.8 °C 14.8 °C 1007.7 hPa ENE 10.5 km/h 18.5 km/h 73 % 0 mm
08:35 19.8 °C 14.8 °C 1007.7 hPa ENE 11.3 km/h 18.5 km/h 73 % 0 mm
08:36 19.8 °C 14.8 °C 1007.7 hPa ENE 11.1 km/h 18.5 km/h 73 % 0 mm
08:41 19.8 °C 15 °C 1007.7 hPa ENE 9.8 km/h 20.4 km/h 74 % 0 mm
08:46 19.8 °C 15 °C 1007.3 hPa ENE 6.4 km/h 13 km/h 74 % 0 mm
08:52 19.8 °C 14.8 °C 1007.3 hPa ENE 10.5 km/h 22.2 km/h 73 % 0 mm
08:57 19.7 °C 14.7 °C 1007.3 hPa ENE 12.7 km/h 18.5 km/h 73 % 0 mm
09:02 19.7 °C 14.9 °C 1007.3 hPa ENE 9.3 km/h 16.1 km/h 74 % 0 mm
09:07 19.7 °C 14.7 °C 1007.3 hPa ENE 13.2 km/h 24.1 km/h 73 % 0 mm
09:12 19.7 °C 14.6 °C 1007.3 hPa East 12.4 km/h 16.7 km/h 72 % 0 mm
09:17 19.7 °C 14.9 °C 1007.3 hPa ENE 7.4 km/h 14.8 km/h 74 % 0 mm
09:22 19.7 °C 14.7 °C 1007.3 hPa NE 8.7 km/h 18.5 km/h 73 % 0 mm
09:27 19.7 °C 14.7 °C 1007.3 hPa ENE 9 km/h 14.8 km/h 73 % 0 mm
09:32 19.6 °C 14.8 °C 1007.3 hPa East 9.8 km/h 18.5 km/h 74 % 0 mm
09:37 19.6 °C 14.6 °C 1007.3 hPa North 11.9 km/h 18.5 km/h 73 % 0 mm
09:42 19.6 °C 14.6 °C 1007.3 hPa ENE 13.5 km/h 24.1 km/h 73 % 0 mm
09:47 19.6 °C 14.6 °C 1007.3 hPa ENE 11.6 km/h 27.8 km/h 73 % 0 mm
09:52 19.6 °C 14.8 °C 1007.3 hPa NE 9.8 km/h 24.1 km/h 74 % 0 mm
09:57 19.7 °C 14.7 °C 1007.3 hPa ENE 12.2 km/h 20.4 km/h 73 % 0 mm
10:02 19.7 °C 14.9 °C 1007.3 hPa NNE 9.5 km/h 14.8 km/h 74 % 0 mm
10:07 19.7 °C 14.7 °C 1007.3 hPa ENE 10.5 km/h 18.5 km/h 73 % 0 mm
10:12 19.7 °C 14.5 °C 1007.3 hPa East 10.8 km/h 24.1 km/h 72 % 0 mm
10:17 19.7 °C 14.7 °C 1007.3 hPa ENE 11.9 km/h 25.9 km/h 73 % 0 mm
10:22 19.7 °C 14.9 °C 1007.7 hPa ENE 12.9 km/h 18.5 km/h 74 % 0 mm
10:27 19.7 °C 14.7 °C 1007.7 hPa NE 8 km/h 14.8 km/h 73 % 0 mm
10:32 19.7 °C 14.7 °C 1008 hPa NE 9.7 km/h 14.5 km/h 73 % 0 mm
10:37 19.7 °C 14.7 °C 1007.7 hPa NE 8.9 km/h 16.7 km/h 73 % 0 mm
10:42 19.7 °C 14.9 °C 1007.7 hPa East 5.8 km/h 8 km/h 74 % 0 mm
10:47 19.7 °C 14.7 °C 1007.7 hPa East 12.7 km/h 20.4 km/h 73 % 0 mm
10:52 19.7 °C 14.6 °C 1007.7 hPa ENE 10.5 km/h 20.4 km/h 72 % 0 mm
10:57 19.8 °C 15 °C 1007.7 hPa ENE 6.9 km/h 16.7 km/h 74 % 0 mm
11:02 19.8 °C 15.1 °C 1008 hPa NE 6.3 km/h 14.8 km/h 74 % 0 mm
11:07 19.9 °C 14.9 °C 1008 hPa NNE 6 km/h 16.7 km/h 73 % 0 mm
11:12 19.9 °C 14.9 °C 1008 hPa ENE 9.2 km/h 13 km/h 73 % 0 mm
11:17 19.9 °C 14.7 °C 1008 hPa ENE 5.5 km/h 16.7 km/h 72 % 0 mm
11:22 19.9 °C 14.7 °C 1008.4 hPa NE 10 km/h 18.5 km/h 72 % 0 mm
11:27 19.9 °C 14.7 °C 1008.4 hPa NNE 7.7 km/h 14.8 km/h 72 % 0 mm
11:32 19.8 °C 14.6 °C 1008 hPa ENE 8.4 km/h 18.5 km/h 72 % 0 mm
11:38 19.9 °C 14.9 °C 1008 hPa NE 6.3 km/h 25.9 km/h 73 % 0 mm
11:43 19.9 °C 15.1 °C 1008 hPa NNE 8.4 km/h 14.8 km/h 74 % 0 mm
11:48 19.9 °C 15.2 °C 1008 hPa ENE 3.4 km/h 9.3 km/h 74 % 0 mm
11:53 20 °C 15.2 °C 1008 hPa East 5.5 km/h 14.8 km/h 74 % 0 mm
11:58 20 °C 15.2 °C 1007.7 hPa ENE 7.4 km/h 14.8 km/h 74 % 0 mm
12:03 20 °C 15 °C 1007.7 hPa NE 8.4 km/h 11.1 km/h 73 % 0 mm
12:08 20.1 °C 15.1 °C 1007.3 hPa ENE 7.7 km/h 13 km/h 73 % 0 mm
12:13 20.1 °C 14.9 °C 1007.7 hPa NE 6.8 km/h 14.8 km/h 72 % 0 mm
12:23 20.2 °C 15 °C 1007.3 hPa NE 5.3 km/h 18.5 km/h 72 % 0 mm
12:28 20.3 °C 15.3 °C 1007.3 hPa NE 10.3 km/h 18.5 km/h 73 % 0 mm
12:33 20.3 °C 15.1 °C 1007.3 hPa ENE 6.8 km/h 16.7 km/h 72 % 0 mm
12:38 20.4 °C 15.2 °C 1007.3 hPa NNE 10.6 km/h 18.5 km/h 72 % 0 mm
12:43 20.4 °C 15.2 °C 1007.3 hPa NE 6.1 km/h 11.1 km/h 72 % 0 mm
12:48 20.5 °C 15.3 °C 1007.3 hPa ENE 13.2 km/h 18.5 km/h 72 % 0 mm
12:58 20.6 °C 15.6 °C 1007.7 hPa East 9.2 km/h 19.3 km/h 73 % 0 mm
13:03 20.7 °C 15.4 °C 1007.7 hPa North 9 km/h 14.8 km/h 72 % 0 mm
13:08 20.7 °C 15.5 °C 1007.7 hPa NE 8.5 km/h 13 km/h 72 % 0 mm
13:13 20.8 °C 15.3 °C 1008 hPa NE 9.3 km/h 19.3 km/h 71 % 0 mm
13:18 20.8 °C 15.8 °C 1008 hPa ENE 8.2 km/h 14.8 km/h 73 % 0 mm
13:23 20.8 °C 15.3 °C 1008 hPa ENE 6.9 km/h 13 km/h 71 % 0 mm
13:28 20.8 °C 15.4 °C 1008 hPa ESE 7.2 km/h 16.7 km/h 71 % 0 mm
13:33 20.8 °C 15.6 °C 1008 hPa NE 6.4 km/h 11.1 km/h 72 % 0 mm
13:38 20.8 °C 15.4 °C 1007.7 hPa NE 7.6 km/h 11.1 km/h 71 % 0 mm
13:43 20.9 °C 15.7 °C 1008 hPa NE 12.6 km/h 16.7 km/h 72 % 0 mm
13:48 20.9 °C 15.4 °C 1008 hPa NE 8.2 km/h 13 km/h 71 % 0 mm
13:53 20.9 °C 15.9 °C 1008 hPa NE 4.2 km/h 16.7 km/h 73 % 0 mm
13:55 20.9 °C 15.7 °C 1007.7 hPa NE 9 km/h 14.8 km/h 72 % 0 mm
14:00 20.9 °C 15.7 °C 1008 hPa NE 6.8 km/h 13 km/h 72 % 0 mm
14:05 20.9 °C 15.9 °C 1007.7 hPa ENE 5.3 km/h 13 km/h 73 % 0 mm
14:10 21 °C 16 °C 1007.7 hPa North 7.6 km/h 14.8 km/h 73 % 0 mm
14:15 21.1 °C 15.8 °C 1007.7 hPa NNE 8.5 km/h 13 km/h 72 % 0 mm
14:20 21.1 °C 15.8 °C 1007.7 hPa ENE 8.7 km/h 14.8 km/h 72 % 0 mm
14:25 21.1 °C 15.8 °C 1007.7 hPa NE 11.3 km/h 18.5 km/h 72 % 0 mm
14:30 21.1 °C 15.8 °C 1007.7 hPa NE 8 km/h 14.8 km/h 72 % 0 mm
14:35 21.2 °C 15.7 °C 1007.7 hPa NE 6.6 km/h 11.1 km/h 71 % 0 mm
14:40 21.2 °C 15.9 °C 1007.7 hPa NE 6.1 km/h 11.1 km/h 72 % 0 mm
14:45 21.2 °C 15.9 °C 1007.7 hPa NE 9.7 km/h 14.8 km/h 72 % 0 mm
14:50 21.2 °C 15.9 °C 1007.7 hPa NNE 10.8 km/h 18.5 km/h 72 % 0 mm
14:55 21.2 °C 15.9 °C 1007.7 hPa NE 13.8 km/h 18.5 km/h 72 % 0 mm
15:00 21.2 °C 16.2 °C 1007.7 hPa NE 7.6 km/h 18.5 km/h 73 % 0 mm
15:05 21.2 °C 16.2 °C 1007.3 hPa NNE 8.7 km/h 14.5 km/h 73 % 0 mm
15:10 21.2 °C 15.9 °C 1007.7 hPa ENE 6.4 km/h 12.9 km/h 72 % 0 mm
15:15 21.2 °C 15.9 °C 1007.7 hPa ENE 7.1 km/h 22.2 km/h 72 % 0 mm
15:20 21.2 °C 16.6 °C 1007.7 hPa NNE 6.9 km/h 11.3 km/h 75 % 0 mm
15:25 21.2 °C 16.6 °C 1007.3 hPa NE 14.2 km/h 24.1 km/h 75 % 0 mm
15:35 21.1 °C 16.1 °C 1007.7 hPa NE 8.5 km/h 18.5 km/h 73 % 0 mm
15:40 21.1 °C 16.5 °C 1007.7 hPa ENE 9.7 km/h 14.8 km/h 75 % 0 mm
15:46 21.1 °C 16.7 °C 1007.7 hPa ENE 4.8 km/h 19.3 km/h 76 % 0 mm
15:51 21.1 °C 16.8 °C 1007.7 hPa ENE 4.8 km/h 11.3 km/h 77 % 0 mm
15:56 21 °C 16.8 °C 1007.7 hPa ENE 4.8 km/h 12.9 km/h 77 % 0 mm
16:01 21 °C 17.2 °C 1007.7 hPa NNE 3.9 km/h 12.9 km/h 79 % 0 mm
16:06 21 °C 16.6 °C 1007.7 hPa North 9.2 km/h 17.7 km/h 76 % 0 mm
16:11 21.1 °C 16.7 °C 1007.7 hPa NE 6.8 km/h 12.9 km/h 76 % 0 mm
16:16 21.2 °C 16.6 °C 1007.7 hPa NNE 7.9 km/h 14.8 km/h 75 % 0 mm
16:21 21.3 °C 16.5 °C 1007.7 hPa North 7.2 km/h 17.7 km/h 74 % 0 mm
16:26 21.4 °C 16.8 °C 1007.7 hPa North 6.4 km/h 13 km/h 75 % 0 mm
16:31 21.5 °C 16.4 °C 1008 hPa NNE 7.6 km/h 14.8 km/h 73 % 0 mm
16:36 21.6 °C 16.6 °C 1007.7 hPa NE 7.1 km/h 16.7 km/h 73 % 0 mm
16:41 21.7 °C 16.4 °C 1008 hPa NE 11.7 km/h 14.8 km/h 72 % 0 mm
16:47 21.8 °C 16.6 °C 1007.7 hPa ENE 5.8 km/h 13 km/h 72 % 0 mm
16:52 21.9 °C 16.6 °C 1007.7 hPa NE 6 km/h 9.3 km/h 72 % 0 mm
16:57 22 °C 16.7 °C 1007.7 hPa NE 6.6 km/h 8 km/h 72 % 0 mm
17:02 22.1 °C 16.6 °C 1007.7 hPa ENE 6.9 km/h 11.1 km/h 71 % 0 mm
17:07 22.2 °C 16.9 °C 1008 hPa NE 5.5 km/h 7.4 km/h 72 % 0 mm
17:12 22.3 °C 17 °C 1008 hPa NE 6.1 km/h 11.1 km/h 72 % 0 mm
17:17 22.3 °C 17.3 °C 1008 hPa NNE 3.5 km/h 7.4 km/h 73 % 0 mm
17:22 22.3 °C 17.1 °C 1008 hPa ENE 6.4 km/h 6.4 km/h 72 % 0 mm
17:27 22.4 °C 17.3 °C 1008 hPa NE 4 km/h 11.1 km/h 73 % 0 mm
17:32 22.4 °C 17.3 °C 1008 hPa NE 4.7 km/h 11.1 km/h 73 % 0 mm
17:37 22.3 °C 17.1 °C 1008 hPa ENE 5.8 km/h 8 km/h 72 % 0 mm
17:42 22.3 °C 17.1 °C 1008 hPa ENE 5.1 km/h 9.3 km/h 72 % 0 mm
17:47 22.3 °C 17.3 °C 1008 hPa ENE 5.5 km/h 11.1 km/h 73 % 0 mm
17:52 22.3 °C 17.3 °C 1008 hPa NE 5 km/h 11.3 km/h 73 % 0 mm
17:57 22.3 °C 17.4 °C 1008 hPa NE 6 km/h 13 km/h 74 % 0 mm
18:02 22.3 °C 17.2 °C 1008 hPa East 7.9 km/h 14.8 km/h 73 % 0 mm
18:07 22.3 °C 17 °C 1008 hPa NE 7.1 km/h 13 km/h 72 % 0 mm
18:12 22.3 °C 17.1 °C 1008 hPa NNE 4.5 km/h 5.6 km/h 72 % 0 mm
18:17 22.3 °C 17.3 °C 1008 hPa ENE 4.7 km/h 11.1 km/h 73 % 0 mm
18:22 22.4 °C 17.5 °C 1008 hPa ENE 4.8 km/h 14.8 km/h 74 % 0 mm
18:27 22.5 °C 17.6 °C 1008 hPa NNE 5 km/h 9.7 km/h 74 % 0 mm
18:32 22.6 °C 17.4 °C 1008.4 hPa NE 6 km/h 11.3 km/h 73 % 0 mm
18:37 22.6 °C 17.1 °C 1008.4 hPa NE 3.9 km/h 11.1 km/h 71 % 0 mm
18:42 22.7 °C 17.2 °C 1008 hPa NE 7.2 km/h 13 km/h 71 % 0 mm
18:47 22.8 °C 17 °C 1008.4 hPa NE 4.5 km/h 14.8 km/h 70 % 0 mm
18:52 22.9 °C 17.1 °C 1008.4 hPa ENE 6.6 km/h 16.7 km/h 70 % 0 mm
18:57 23 °C 17.7 °C 1008.4 hPa NE 5.6 km/h 8 km/h 72 % 0 mm
19:02 23.1 °C 17.7 °C 1008.4 hPa NNE 6.3 km/h 11.3 km/h 72 % 0 mm
19:07 23.1 °C 17.1 °C 1008.4 hPa NE 6.4 km/h 11.1 km/h 69 % 0 mm
19:12 23.1 °C 17.1 °C 1008.4 hPa NNE 5.5 km/h 11.1 km/h 69 % 0 mm
19:22 23.1 °C 17.3 °C 1008.7 hPa NE 4.2 km/h 11.1 km/h 70 % 0 mm
19:27 23 °C 17.4 °C 1008.7 hPa NNE 6 km/h 9.3 km/h 71 % 0 mm
19:37 22.8 °C 17.2 °C 1008.7 hPa NE 4.8 km/h 11.1 km/h 71 % 0 mm
19:42 22.7 °C 17.1 °C 1008.7 hPa NNE 4.3 km/h 7.4 km/h 71 % 0 mm
19:47 22.6 °C 17.3 °C 1008.7 hPa NNE 3.1 km/h 9.3 km/h 72 % 0 mm
19:52 22.5 °C 17.2 °C 1008.7 hPa ENE 3.9 km/h 7.4 km/h 72 % 0 mm
19:58 22.3 °C 16.8 °C 1008.7 hPa ENE 5.1 km/h 6.4 km/h 71 % 0 mm
20:03 22.2 °C 16.9 °C 1009 hPa NE 5.5 km/h 11.1 km/h 72 % 0 mm
20:08 22.1 °C 16.8 °C 1008.7 hPa East 6.9 km/h 11.1 km/h 72 % 0 mm
20:13 22.1 °C 16.8 °C 1009 hPa NE 4 km/h 5.6 km/h 72 % 0 mm
20:18 22 °C 16.7 °C 1009 hPa NE 4.7 km/h 9.3 km/h 72 % 0 mm
20:23 21.9 °C 16.8 °C 1009 hPa NE 2.6 km/h 5.6 km/h 73 % 0 mm
20:28 21.8 °C 16.6 °C 1009.4 hPa NE 3.5 km/h 5.6 km/h 72 % 0 mm
20:33 21.7 °C 16.4 °C 1009.4 hPa ENE 5.1 km/h 6.4 km/h 72 % 0 mm
20:38 21.7 °C 16.2 °C 1009.4 hPa NE 7.7 km/h 13 km/h 71 % 0 mm
20:43 21.6 °C 15.8 °C 1009.4 hPa ENE 6 km/h 13 km/h 70 % 0 mm
20:48 21.5 °C 16 °C 1009.4 hPa ENE 4.7 km/h 11.1 km/h 71 % 0 mm
20:54 21.4 °C 15.9 °C 1009.4 hPa ENE 7.4 km/h 13 km/h 71 % 0 mm
20:56 21.4 °C 15.7 °C 1009.4 hPa ENE 8 km/h 14.5 km/h 70 % 0 mm
21:01 21.4 °C 15.7 °C 1009.4 hPa ENE 5.5 km/h 13 km/h 70 % 0 mm
21:06 21.3 °C 15.4 °C 1009.4 hPa ENE 4.7 km/h 7.4 km/h 69 % 0 mm
21:11 21.3 °C 15.8 °C 1009.7 hPa ENE 6 km/h 11.1 km/h 71 % 0 mm
21:16 21.2 °C 15.9 °C 1009.7 hPa NE 4.8 km/h 11.1 km/h 72 % 0 mm
21:21 21.2 °C 15.9 °C 1009.7 hPa ENE 4.2 km/h 7.4 km/h 72 % 0 mm
21:26 21.1 °C 16.1 °C 1009.7 hPa NE 3.4 km/h 5.6 km/h 73 % 0 mm
21:31 21.1 °C 15.8 °C 1009.7 hPa ENE 4.3 km/h 9.7 km/h 72 % 0 mm
21:36 21 °C 15.8 °C 1009.7 hPa NE 3.4 km/h 11.1 km/h 72 % 0 mm
21:41 20.9 °C 15.4 °C 1009.7 hPa ENE 5.1 km/h 13 km/h 71 % 0 mm
21:46 20.8 °C 14.9 °C 1009.7 hPa ENE 4.8 km/h 13 km/h 69 % 0 mm
21:51 20.8 °C 14.9 °C 1010 hPa NE 6 km/h 13 km/h 69 % 0 mm
21:56 20.8 °C 15.1 °C 1010 hPa NE 4.8 km/h 6.4 km/h 70 % 0 mm
22:01 20.7 °C 15.1 °C 1010 hPa ENE 6.8 km/h 13 km/h 70 % 0 mm
22:06 20.7 °C 15.1 °C 1010 hPa ENE 4.8 km/h 11.1 km/h 70 % 0 mm
22:11 20.7 °C 15.4 °C 1010 hPa NE 4 km/h 7.4 km/h 72 % 0 mm
22:16 20.6 °C 15.4 °C 1010 hPa ENE 6.4 km/h 11.1 km/h 72 % 0 mm
22:21 20.6 °C 15.1 °C 1009.7 hPa NNE 2.6 km/h 7.4 km/h 71 % 0 mm
22:26 20.6 °C 15.1 °C 1010 hPa NE 5.5 km/h 7.4 km/h 71 % 0 mm
22:31 20.5 °C 15.3 °C 1010 hPa NE 1.9 km/h 3.7 km/h 72 % 0 mm
22:37 20.5 °C 15.5 °C 1010 hPa ENE 4.3 km/h 5.6 km/h 73 % 0 mm
22:42 20.4 °C 15.2 °C 1010 hPa NE 5.1 km/h 13 km/h 72 % 0 mm
22:47 20.4 °C 15.4 °C 1010 hPa East 6 km/h 14.8 km/h 73 % 0 mm
22:52 20.3 °C 15.3 °C 1010 hPa NE 2.7 km/h 5.6 km/h 73 % 0 mm
22:57 20.3 °C 15.3 °C 1010.4 hPa NE 4.3 km/h 9.3 km/h 73 % 0 mm
23:02 20.2 °C 15.2 °C 1010.4 hPa NE 6 km/h 14.8 km/h 73 % 0 mm
23:07 20.2 °C 14.7 °C 1010.4 hPa ENE 2.9 km/h 6.4 km/h 71 % 0 mm
23:12 20.1 °C 15.1 °C 1010.4 hPa NE 5.5 km/h 8 km/h 73 % 0 mm
23:17 20.1 °C 15.1 °C 1010.4 hPa ENE 4.5 km/h 8 km/h 73 % 0 mm
23:22 20 °C 15.2 °C 1010.4 hPa NE 6.8 km/h 11.1 km/h 74 % 0 mm
23:27 19.9 °C 14.9 °C 1010.4 hPa NE 7.4 km/h 14.8 km/h 73 % 0 mm
23:32 19.9 °C 14.9 °C 1010.4 hPa NNW 9.2 km/h 14.8 km/h 73 % 0 mm
23:37 19.9 °C 15.1 °C 1010.4 hPa North 9.7 km/h 13 km/h 74 % 0 mm
23:42 19.8 °C 15.1 °C 1010.4 hPa North 7.1 km/h 13 km/h 74 % 0 mm
23:47 19.8 °C 15.1 °C 1010.4 hPa NNE 7.7 km/h 13 km/h 74 % 0 mm
23:52 19.8 °C 15 °C 1010.4 hPa NNE 9.2 km/h 13 km/h 74 % 0 mm
23:57 19.7 °C 15.2 °C 1010.4 hPa North 6.4 km/h 11.3 km/h 75 % 0 mm
Crab Meadow Weather
Compliments of Weather Underground - 3 mb

Script developed by  Jim McMurry - jmcmurry@mwt.net Adapted for the template by  Wim van der Kuil - Leuven-Template.eu

Clouds: Mostly Cloudy or Considerable Cloudiness indicate about 75 percent cloud coverage.